Location: Doverdale
(52.2833°N, 2.2000°W)
Time: 02:58:50
(UTC+00:00)

Cosmos 2278 Rocket - Pass Details

Date: 29 October 2020
Orbit: 840 x 846 km, 71.0° (Epoch: 23 November)

Event Time Altitude Azimuth Distance (km) Brightness Sun altitude
Rises 20:01:11 0° 327° (NNW) 3,413 6.1 -30.3°
Reaches altitude 10° 20:04:23 10° 345° (NNW) 2,477 5.0 -30.8°
Enters shadow 20:06:57 18° 11° (N) 1,984 4.2 -31.2°
